Find Starlink 38147

NORAD ID: 100306 Int'l Des: 2026-184 Owner: SPXS Country: US Constellation: starlink operational

現在のビュー

3D地球を読み込み中...

About Starlink 38147

Starlink 38147 (NORAD 100306) is a starlink constellation satellite launched Aug 12, 2026 by SPXS of US. with a mass of 575.00 kg.

次回通過

Passes for default location (London). Set your location on the main map for personalized predictions.

高度履歴

Loading altitude history...

軌道要素

1 A0306U 26184F 26248.94244896 -.00280479 00000-0 -55755-2 0 9999
2 A0306 97.2851 114.1824 0001531 90.0928 270.0498 15.47957263 5129
Epoch: Sep 5, 2026 • Age: 67 hours

現在のステータス

高度 431.7 km
遠地点 / 近地点 N/A
速度 7.66 km/s
衛星直下点 34.33°N, 44.3°E
打ち上げ日 Aug 12, 2026
運用期間 27 days
タイプ internet

技術仕様

分類 Payload
質量 575.00 kg
乾燥質量 530.00 kg
総質量 575.00 kg
長さ 0.30 m
直径 4.10 m
スパン 29.00 m
形状 Box + pan
製造者 SPXS
バスタイプ Starlink V2MO
フェーズステータス In Orbit
所有者/国 SPXS/US

Most Searched